User: anonymous   Login
Location: Pallagorio
(39.3000°N, 16.9000°E)
Time: 07:25:19
(UTC+00:00)
Language:

Cosmos 405 - Orbit

View from above orbital plane
View from above orbital plane
View from above satellite
View from above satellite

Ground track
Ground track

The orbit data is extracted from the following two-line orbital elements,

1 05117U 71028A   21108.84843272  .00002883  00000-0  78200-4 0  9994
2 05117  81.2603 137.5534 0009329 354.4825 178.2394 15.37215728727526
Epoch (UTC): 18 April 2021 20:21:44
Eccentricity: 0.0009329
inclination: 81.2603°
perigee height: 448 km
apogee height: 461 km
right ascension of ascending node: 137.5534°
argument of perigee: 354.4825°
revolutions per day: 15.37215728
mean anomaly at epoch: 178.2394°
orbit number at epoch: 72752

The dashed part of the orbit path shows where the satellite is in the earth's shadow,  

DLR